SCP
1 1 1 1 1 1 1 1 1 1 -1 -3 -1 0 0 0 0 0 0 0 0 0 0 0 0 0 0 0 0 0 0 0 0 0 0 0 0 0 0 0 0 0 0
1 1 1 1 1 1 1 1 1 1 -0 -1 -0 0 0 0 0 0 0 0 0 0 0 0 0 0 0 0 0 0 0 0 0 0 0 0 0 0 0 0 0 0 0
1 1 1 1 1 1 1 1 1 0 0 0 0 0 0 0 0 0 0 0 0 0 0 0 0 0 0 0 0 0 0 0 0 0 0 0 0 0 0 0 0 0 0
1 1 1 1 1 1 1 1 0 0 0 0 0 0 0 0 0 0 0 0 0 0 0 0 0 0 0 0 0 0 0 0 0 0 0 0 0 0 0 0 0 0 0
1 1 1 1 1 1 1 1 0 0 0 0 0 0 0 0 0 0 0 0 0 0 0 0 0 0 0 0 0 0 0 0 0 0 0 0 0 0 0 0 0 0 0
1 1 1 1 1 1 1 1 0 0 0 0 0 0 0 0 0 0 0 0 0 0 0 0 0 0 0 0 0 0 0 0 0 0 0 0 0 0 0 0 0 0 0
1 1 1 1 1 1 1 0 0 0 0 0 0 0 0 0 0 0 0 0 0 0 0 0 0 0 0 0 0 0 0 0 0 0 0 0 0 0 0 0 0 0 0
1 1 1 1 1 1 0 0 0 0 0 0 0 0 0 0 0 0 0 0 0 0 0 0 0 0 0 0 0 0 0 0 0 0 0 0 0 0 0 0 0 0 0
1 1 1 1 1 0 0 0 0 0 0 0 0 0 0 0 0 0 0 0 0 0 0 0 0 0 0 0 0 0 0 0 0 0 0 0 0 0 0 0 0 0 0
1 1 1 1 1 0 0 0 0 0 0 0 0 0 0 0 0 0 0 0 0 0 0 0 0 0 0 0 0 0 0 0 0 0 0 0 0 0 0 0 0 0 0
0 0 1 1 1 0 0 0 0 0 0 0 0 0 0 0 0 0 0 0 0 0 0 0 0 0 0 0 0 0 0 0 0 0 0 0 0 0 0 0 0 0 0
0 0 0 0 0 0 0 0 0 0 0 0 0 0 0 0 0 0 0 0 0 0 0 0 0 0 0 0 0 0 0 0 0 0 0 0 0 0 0 0 0 0 0
0 0 0 0 0 0 0 0 0 0 0 0 0 0 0 0 0 0 0 0 0 0 0 0 0 0 0 0 0 0 0 0 0 0 0 0 0 0 0 0 0 0 0
0 0 0 0 0 0 0 0 0 0 0 0 0 0 0 0 0 0 0 0 0 0 0 0 0 0 0 0 0 0 0 0 0 0 0 0 0 0 0 0 0 0 0
0 0 0 0 0 0 0 0 0 0 0 0 0 0 0 0 0 0 0 0 0 0 0 0 0 0 0 0 0 0 0 0 0 0 0 0 0 0 0 0 0 0 0
0 0 0 0 0 0 0 0 0 0 0 0 0 0 0 0 0 0 0 0 0 0 0 0 0 0 0 0 0 0 0 0 0 0 0 0 0 0 0 0 0 0 0
0 0 0 0 0 0 0 0 0 0 0 0 0 0 0 0 0 0 0 0 0 0 0 0 0 0 0 0 0 0 0 0 0 0 0 0 0 0 0 0 0 0 0
0 0 0 0 0 0 0 0 0 0 0 0 0 0 0 0 0 0 0 0 0 0 0 0 0 0 0 0 0 0 0 0 0 0 0 0 0 0 0 0 0 0 0
0 0 0 0 0 0 0 0 0 0 0 0 0 0 0 0 0 0 0 0 0 0 0 0 0 0 0 0 0 0 0 0 0 0 0 0 0 0 0 0 0 0 0
0 0 0 0 0 0 0 0 0 0 0 0 0 0 0 0 0 0 0 0 0 0 0 0 0 0 0 0 0 0 0 0 0 0 0 0 0 0 0 0 0 0 0
0 0 0 0 0 0 0 0 0 0 0 0 0 0 0 0 0 0 0 0 0 0 0 0 0 0 0 0 0 0 0 0 0 0 0 0 0 0 0 0 0 0 0
0 0 0 0 0 0 0 0 0 0 0 0 0 0 0 0 0 0 0 0 0 0 0 0 0 0 0 0 0 0 0 0 0 0 0 0 0 0 0 0 0 0 0
0 0 0 0 0 0 0 0 0 0 0 0 0 0 0 0 0 0 0 0 0 0 0 0 0 0 0 0 0 0 0 0 0 0 0 0 0 0 0 0 0 0 0
0 0 0 0 0 0 0 0 0 0 0 0 0 0 0 0 0 0 0 0 0 0 0 0 0 0 0 0 0 0 0 0 0 0 0 0 0 0 0 0 0 0 0
0 0 0 0 0 0 0 0 0 0 0 0 0 0 0 0 0 0 0 0 0 0 0 0 0 0 0 0 0 0 0 0 0 0 0 0 0 0 0 0 0 0 0
0 0 0 0 0 0 0 0 0 0 0 0 0 0 0 0 0 0 0 0 0 0 0 0 0 0 0 0 0 0 0 -0 0 0 0 0 0 0 0 0 0 0 0
Wind_Speed
6 6 6 7 7 6 7 6 6 5 4 3 2 2 2 1 2 1 1 2 2 2 2 1 1 1 1 1 2 1 2 2 2 1 3 3 2 1 1 1 1 1 1
8 7 6 6 6 6 5 5 5 5 4 3 2 2 2 1 1 1 1 1 2 2 1 1 1 1 1 2 2 1 1 2 1 0 1 2 3 2 2 1 1 1 1
10 8 7 6 6 6 5 4 4 4 3 3 3 3 3 2 2 1 1 1 1 1 1 1 1 1 1 1 2 1 0 2 2 0 1 0 2 3 3 2 1 1 1
9 9 8 8 7 6 6 6 5 4 3 4 4 4 3 2 1 1 1 0 1 1 1 1 1 1 0 1 2 1 1 1 2 2 1 2 2 1 2 3 2 2 2
11 10 8 8 7 6 6 5 5 4 3 4 4 4 3 2 1 1 1 1 1 1 1 1 1 1 1 1 1 2 2 1 1 1 1 1 1 1 2 3 3 2 2
9 9 8 7 6 6 6 5 5 4 4 4 4 4 4 3 3 2 1 0 1 1 2 1 1 1 1 1 2 2 2 1 1 1 1 1 1 2 2 2 2 3 3
9 9 9 9 8 7 7 6 6 5 4 4 4 3 4 4 4 3 2 1 0 1 1 1 1 1 1 1 1 1 2 2 2 2 2 2 2 2 2 2 2 2 2
9 9 10 10 9 8 7 7 7 5 4 4 3 3 3 3 2 3 3 2 2 2 2 1 1 2 2 2 1 1 2 2 2 3 2 2 2 2 2 2 2 1 2
9 9 9 9 8 8 7 8 7 5 5 4 4 3 2 2 2 2 2 2 2 1 1 1 1 2 2 2 2 1 3 2 2 3 3 2 2 2 2 2 2 2 1
9 8 8 8 7 7 6 7 7 6 5 4 4 3 3 3 2 2 1 1 1 1 1 1 2 2 2 2 2 2 3 2 3 2 2 2 2 2 2 1 1 2 2
8 8 7 7 7 6 5 6 6 5 4 4 3 3 3 3 2 2 2 1 1 1 1 2 1 2 2 2 2 2 3 3 3 3 2 3 3 2 2 1 1 1 2
6 7 7 7 6 6 5 6 5 5 5 4 4 3 3 3 2 2 2 2 1 1 1 1 1 1 2 2 2 2 2 3 3 3 3 3 2 2 2 1 1 1 2
6 6 6 6 7 6 6 5 5 5 4 4 4 3 3 3 3 2 2 2 2 2 2 1 1 2 2 2 2 2 2 2 3 3 3 3 2 2 2 1 1 1 1
7 6 6 5 6 6 5 5 5 4 5 5 5 4 4 4 3 3 2 2 2 2 2 1 1 2 2 2 2 2 2 3 3 3 3 2 2 2 2 1 1 1 0
8 8 7 5 4 5 5 5 5 5 5 5 5 5 4 3 3 2 2 2 2 2 1 1 1 2 1 2 2 2 2 2 3 4 3 3 3 3 2 2 2 1 1
8 8 7 6 6 6 6 5 5 4 5 5 5 5 4 3 3 3 2 2 1 1 1 1 2 2 2 4 4 3 2 2 2 3 4 4 4 4 3 3 3 3 3
7 7 6 6 6 6 6 6 5 4 4 4 4 4 4 4 3 3 2 2 2 1 2 2 2 3 4 6 6 5 2 2 3 3 3 4 4 4 2 3 3 3 5
6 6 5 5 4 4 4 5 5 5 4 4 4 4 4 4 3 2 2 2 2 2 2 3 3 3 5 6 6 5 2 2 3 3 3 3 4 4 2 2 3 3 3
5 5 5 4 4 5 5 5 4 4 4 3 4 4 4 3 3 3 3 2 2 2 3 3 3 3 5 6 5 4 1 2 4 4 3 3 3 5 3 2 3 4 4
5 4 4 3 4 4 5 5 4 4 3 3 4 4 3 3 3 3 2 2 2 2 3 3 3 4 5 7 6 4 1 2 3 4 4 5 5 6 4 2 2 4 5
5 5 5 4 4 4 5 5 4 4 4 3 3 3 3 2 3 2 2 2 2 2 3 3 4 4 5 6 6 5 2 2 3 3 4 4 7 7 7 5 4 6 6
5 5 4 3 3 4 5 5 4 4 3 3 3 3 2 2 1 2 2 2 2 2 3 3 5 4 4 4 4 5 5 4 2 4 4 4 8 9 8 6 6 7 5
5 4 4 3 3 4 5 5 4 4 4 3 2 2 2 1 1 2 2 2 2 2 3 3 4 4 4 3 5 5 6 6 3 4 6 8 10 9 6 6 8 6 3
4 3 4 4 4 4 4 5 4 4 4 4 2 2 1 2 2 2 2 2 3 3 3 4 4 4 3 3 3 3 3 4 4 4 6 8 8 6 6 6 5 3 3
3 3 3 4 5 4 4 4 4 5 4 3 2 2 2 2 2 3 3 4 4 5 5 4 4 4 5 6 6 3 3 2 3 3 3 3 3 3 3 3 4 3 2
3 3 3 4 4 4 4 4 4 5 5 3 2 2 2 2 2 2 4 5 6 9 9 8 7 5 8 9 8 7 5 4 3 1 2 4 4 4 4 4 4 3 3
Wind_Direction
156 139 131 131 131 137 142 140 135 132 122 118 121 116 115 112 100 97 84 75 69 68 68 49 25 22 21 327 329 326 331 316 320 339 318 314 307 312 289 287 282 269 249
148 148 145 142 146 148 142 142 137 135 142 148 143 141 136 135 132 97 58 50 68 61 69 66 43 17 14 352 349 2 344 312 338 52 339 332 331 331 318 301 277 290 288
162 164 160 159 153 149 148 143 138 132 135 126 105 93 73 60 50 50 44 5 34 45 59 65 52 6 20 331 323 332 320 295 304 207 154 217 273 306 310 300 288 287 278
167 170 164 161 158 153 150 140 135 132 131 125 129 135 137 148 192 185 161 45 23 39 51 58 58 22 350 324 314 340 285 264 297 306 250 208 211 235 297 308 302 285 261
171 171 169 165 156 144 141 139 132 133 138 134 138 139 133 144 145 119 107 54 7 359 14 35 35 11 333 317 317 319 318 279 245 267 285 281 276 227 222 280 300 306 275
170 166 162 152 143 139 139 139 142 146 149 140 139 147 145 141 136 134 141 47 345 335 335 357 7 355 332 319 312 302 305 290 275 264 249 237 238 247 228 243 274 285 287
165 164 160 160 155 153 156 155 152 153 153 145 150 157 155 156 159 168 170 166 204 275 292 331 326 325 302 298 304 312 305 292 284 268 259 251 242 229 225 230 260 277 288
168 165 168 167 164 165 166 160 157 154 154 147 150 152 160 163 170 178 174 177 190 220 249 278 290 296 303 310 303 293 288 291 284 279 274 270 269 242 218 213 212 271 298
168 167 169 166 166 171 173 164 160 157 163 165 159 149 150 157 167 173 167 175 192 212 233 258 288 299 300 294 294 296 293 292 288 285 284 277 276 267 251 221 194 192 232
167 166 167 165 166 170 168 160 161 167 171 168 164 157 159 159 154 147 174 213 215 224 265 284 298 302 304 310 317 307 304 309 303 289 291 290 280 284 279 240 218 196 188
167 162 158 156 158 156 159 160 162 161 167 168 163 155 161 156 147 155 190 212 240 263 275 277 288 304 311 320 329 309 306 308 305 301 290 289 283 289 285 262 237 218 177
154 147 144 147 153 162 169 169 170 170 174 170 163 164 162 158 159 175 205 213 240 273 278 282 294 304 316 323 329 317 313 306 305 304 301 295 299 294 290 271 246 236 205
147 143 143 155 168 173 173 170 171 173 172 163 159 159 165 167 178 198 211 221 241 272 290 284 297 302 305 307 300 295 309 308 300 299 296 293 299 307 305 293 258 243 219
153 152 153 166 174 171 172 169 169 170 166 161 164 172 184 186 193 204 214 231 241 256 278 277 280 282 285 289 293 304 308 311 312 307 299 299 286 273 273 266 247 210 185
165 164 164 165 166 166 168 168 171 173 169 165 173 189 199 196 196 206 221 237 246 247 249 253 283 290 280 273 274 284 293 304 314 319 314 306 306 290 263 240 223 196 188
175 172 170 168 166 170 171 168 170 172 167 171 184 192 194 193 199 213 221 228 250 260 272 268 268 289 282 281 278 268 283 291 295 304 310 311 312 308 297 273 248 215 198
175 174 174 175 174 176 172 171 168 165 167 177 185 190 192 194 200 206 199 213 240 269 276 277 274 280 282 286 287 281 260 274 277 280 291 303 312 317 301 295 291 265 234
166 167 168 169 172 168 164 161 158 163 171 184 189 191 191 198 202 195 206 229 239 248 256 264 272 274 279 284 285 285 273 278 280 274 268 274 294 300 290 288 295 281 266
150 157 167 163 164 161 161 156 159 163 173 185 191 192 187 186 190 204 226 237 234 266 266 263 265 268 279 283 282 277 284 288 294 293 285 263 270 286 294 277 288 294 291
133 139 144 143 157 165 153 150 162 167 183 196 196 191 184 181 196 215 233 236 239 262 277 274 266 260 268 277 275 260 227 280 293 300 296 279 269 276 281 256 262 279 284
142 146 148 156 170 163 145 150 164 187 200 190 179 177 181 192 205 215 227 236 256 288 294 290 289 278 268 273 272 255 215 238 275 290 294 288 290 283 278 270 245 251 265
148 153 152 166 173 157 147 155 180 198 186 169 168 180 199 217 204 214 255 265 264 283 291 295 301 294 283 270 266 255 241 234 240 268 277 282 292 288 286 279 266 269 273
156 156 153 164 178 166 159 170 198 187 167 162 178 199 219 240 234 231 253 271 268 260 275 278 281 289 293 283 265 258 256 252 241 259 272 283 290 292 288 275 277 279 260
156 154 151 170 185 185 176 185 192 172 158 166 188 204 216 260 274 264 248 247 253 258 268 272 272 279 286 285 278 271 268 271 268 275 286 291 288 282 276 282 285 265 240
158 155 167 181 188 187 188 190 182 160 159 174 191 215 230 241 264 271 256 246 244 234 234 251 250 253 269 268 257 248 258 263 271 294 300 302 306 304 296 290 279 271 262
157 164 178 176 181 178 185 194 180 158 158 173 200 223 240 261 262 273 299 293 270 270 261 253 249 257 256 268 272 271 271 275 271 255 284 290 287 284 286 288 287 277 266